Dewpoint
25 23 23 23 22 22 21 22 21 22 23 25 25 25 25 26 25 24 25 25 25 25 25 29 29 29 25 25 24 22 22 20 22 21 25 26 26 27 29 32 34 34 37
26 25 23 22 21 20 21 21 22 21 23 25 25 25 26 26 25 25 26 25 24 24 25 30 28 29 27 26 26 23 19 22 23 22 22 22 25 28 31 30 33 37 37
24 23 21 21 20 20 21 21 21 22 22 25 25 26 26 25 25 27 26 25 24 26 28 29 28 27 26 27 22 21 20 25 25 24 23 20 23 26 30 28 32 34 37
23 21 21 21 21 21 21 21 21 23 22 25 25 26 25 25 27 28 26 24 23 29 27 28 28 27 26 27 26 23 25 25 24 24 23 18 17 24 20 26 26 33 34
22 21 21 21 22 22 21 21 21 22 23 25 25 26 25 24 25 28 26 22 22 27 26 27 26 27 29 29 29 26 27 25 25 20 20 12 14 16 16 19 28 30 34
21 22 23 22 22 22 20 21 21 21 23 24 24 26 25 23 26 28 24 22 22 23 25 24 27 28 28 29 29 29 30 29 25 22 14 22 16 16 24 28 27 31 31
22 23 23 23 22 21 21 21 21 21 23 23 23 23 21 22 25 28 24 22 22 22 23 25 26 26 28 29 28 28 29 29 29 26 19 20 23 25 28 29 29 31 32
21 21 22 23 21 21 20 20 21 21 20 22 22 21 19 19 27 27 25 22 22 22 24 26 27 28 29 29 28 27 28 29 30 31 31 30 31 32 31 31 31 32 33
22 22 22 22 21 19 18 18 18 18 19 19 20 20 18 18 25 28 25 23 23 22 24 25 28 28 30 30 27 26 27 29 32 34 35 35 35 34 35 33 31 31 31
22 22 21 22 19 17 16 16 16 15 17 18 17 18 20 18 23 29 26 24 22 23 22 23 26 28 28 30 28 27 26 27 29 30 33 33 34 34 33 34 33 31 31
23 23 22 18 13 13 12 12 13 13 14 16 17 17 17 19 22 28 26 24 23 22 22 23 25 28 28 29 29 28 28 29 29 30 31 32 33 33 33 33 34 34 30
24 22 21 19 5 7 10 10 11 12 13 14 15 16 17 18 24 26 25 24 24 23 23 25 26 28 28 28 28 29 29 29 29 29 29 30 31 32 33 33 33 34 34
22 22 19 17 14 13 12 12 11 13 13 13 14 16 17 20 25 26 26 24 24 24 25 25 25 26 26 26 27 28 27 27 28 27 27 29 31 32 33 33 33 34 34
23 21 16 15 16 16 17 16 13 13 14 14 16 16 18 21 23 25 24 23 23 23 24 23 23 24 23 23 25 26 27 27 28 27 28 30 32 32 32 33 32 32 31
18 17 19 20 20 19 20 20 17 16 16 16 16 18 14 21 23 23 23 23 22 22 22 21 21 21 21 21 22 24 25 26 27 28 28 29 30 31 31 32 32 32 30
15 18 19 20 20 20 21 21 21 20 19 20 22 21 16 22 22 21 21 21 21 21 19 17 17 19 19 19 20 21 24 25 26 28 28 28 29 30 30 30 30 29 28
16 18 18 18 17 17 18 19 19 19 19 19 21 22 21 21 21 20 19 18 19 18 16 16 15 17 18 19 19 20 21 25 27 28 27 28 29 29 28 28 29 28 28
19 23 16 15 16 17 17 19 19 16 13 15 18 20 20 21 20 19 18 16 14 15 15 14 14 16 17 17 18 18 21 23 26 27 27 28 29 29 28 28 29 28 27
15 13 13 14 15 16 16 16 17 16 15 15 17 18 18 19 20 19 19 15 14 13 14 13 13 14 16 16 17 18 19 21 25 26 26 28 29 29 28 28 28 27 26
15 18 17 16 16 16 16 16 16 16 16 16 18 18 18 17 16 16 17 14 14 14 14 13 13 13 14 15 16 17 19 21 23 25 26 26 28 28 28 28 28 28 28
15 15 16 17 17 17 17 16 17 18 19 18 18 18 15 18 17 16 16 16 16 15 14 13 12 12 13 14 15 16 17 20 22 24 25 26 27 28 29 28 28 28 27
16 19 18 18 15 18 18 18 19 20 21 20 19 20 13 18 17 16 16 13 12 16 15 12 11 11 12 12 14 14 16 18 20 22 24 25 25 26 28 28 28 28 27
18 17 16 14 17 18 20 14 17 20 20 19 19 18 17 14 13 14 13 9 13 11 12 11 9 9 11 12 14 14 15 16 19 22 22 24 24 25 26 26 28 27 27
19 20 18 20 21 21 19 16 17 17 19 18 13 16 12 9 5 6 5 5 8 7 7 7 7 7 8 10 13 14 15 18 19 21 21 22 22 23 24 24 24 25 26
22 21 20 18 19 14 12 18 17 16 17 16 14 14 15 11 11 2 -1 1 2 3 6 5 3 5 6 6 8 11 13 16 16 18 21 20 20 20 20 21 21 22 22
22 23 22 21 17 14 15 12 13 14 16 14 13 10 10 10 9 0 2 1 0 3 4 3 4 3 4 7 6 9 10 14 15 15 18 19 18 19 19 19 19 19 19
Lifted_Index
18 19 19 20 20 21 21 20 19 19 18 18 17 15 14 13 12 11 11 11 11 11 11 11 11 12 12 12 11 12 12 12 11 12 14 15 16 15 16 16 16 17 17
18 19 19 20 20 21 20 20 19 18 18 17 16 15 13 12 12 11 11 11 11 11 11 11 12 12 12 12 12 12 12 12 12 12 14 16 16 15 16 16 16 16 17
18 19 19 20 20 20 20 19 19 18 18 17 16 14 13 12 11 11 11 11 11 12 12 12 12 12 12 12 12 12 12 12 12 13 14 16 16 15 16 16 16 16 16
19 19 20 20 20 20 19 19 18 18 17 16 15 14 13 12 12 11 11 12 12 12 12 12 13 13 13 13 12 12 11 11 12 13 14 15 16 15 16 16 16 16 16
19 19 20 20 20 19 19 18 18 17 17 16 14 13 13 12 12 12 12 12 12 12 12 13 13 13 13 13 12 11 11 11 11 12 14 15 15 15 16 16 16 15 15
20 20 20 20 19 19 18 17 17 17 16 15 14 13 13 13 12 12 12 12 12 12 12 13 13 14 14 13 12 11 10 10 11 12 14 15 15 16 16 16 16 15 14
20 19 19 19 19 18 17 17 17 16 16 15 14 13 13 13 12 13 13 12 12 13 13 13 14 14 14 13 12 11 10 10 10 12 14 15 16 16 16 15 15 15 15
19 19 19 19 18 17 17 17 17 17 16 15 14 14 13 12 12 13 13 13 12 13 13 13 14 14 14 13 12 11 10 10 10 12 13 15 16 16 16 15 15 15 15
19 19 19 18 18 17 17 17 17 17 17 16 15 14 12 12 12 13 13 12 12 12 13 14 14 14 14 13 12 11 10 10 10 12 13 15 15 15 15 15 15 14 14
19 19 19 18 17 17 17 17 17 18 17 16 14 13 12 12 13 13 13 12 11 12 13 14 14 14 14 13 12 11 10 10 10 11 13 14 15 15 15 15 15 14 14
19 19 19 18 17 17 17 17 17 17 17 15 14 13 12 12 13 13 13 12 12 12 12 13 14 14 14 13 12 11 10 10 10 12 13 14 14 14 14 14 14 14 14
18 18 18 18 17 17 17 17 17 17 16 15 13 12 12 13 13 13 13 13 12 12 13 14 14 14 14 13 12 11 11 10 11 12 13 13 13 13 14 14 14 14 14
17 17 17 17 16 16 16 16 16 16 15 14 13 13 12 12 13 13 13 13 13 13 13 14 14 14 14 13 12 12 11 11 11 12 13 13 13 13 14 14 14 14 14
16 16 16 16 16 16 16 16 16 16 15 14 14 13 13 12 13 13 13 13 13 13 13 14 14 14 14 13 13 12 11 11 12 12 13 13 13 13 13 13 13 13 13
16 16 15 15 15 15 15 16 16 16 16 15 15 14 14 13 14 14 14 13 13 13 13 13 13 13 14 13 13 12 12 12 12 13 13 13 13 13 13 13 13 12 12
15 15 15 15 15 15 15 15 16 17 17 16 16 16 15 15 15 14 14 14 13 13 12 12 12 13 13 14 13 13 12 12 12 13 13 13 13 13 13 13 13 13 12
15 15 15 14 14 14 14 15 15 16 16 16 16 16 16 16 16 15 15 14 13 12 11 11 12 13 14 14 14 13 13 13 13 13 13 13 13 13 13 14 14 13 13
15 15 14 14 14 14 14 15 15 15 15 16 16 16 16 16 16 16 15 14 13 12 11 11 12 13 14 14 14 14 13 13 13 13 13 13 13 14 14 14 14 14 14
14 14 14 14 13 14 14 15 15 15 15 15 15 15 16 16 16 16 15 14 14 13 12 12 12 13 13 14 14 14 13 13 13 13 13 13 14 14 14 14 14 14 14
14 14 14 13 13 14 14 15 15 15 15 15 15 15 15 15 14 15 15 15 15 14 14 13 13 13 13 14 14 14 14 13 13 13 14 14 14 14 14 14 14 14 14
14 14 13 13 13 13 14 14 15 15 15 15 15 15 15 15 14 14 15 15 15 15 15 15 15 14 14 14 14 14 14 14 14 14 14 14 14 15 15 15 15 14 14
13 13 13 13 13 13 14 14 14 15 15 15 15 16 16 15 15 14 15 15 16 16 16 16 16 15 15 15 15 14 14 14 14 14 14 15 15 15 15 15 15 15 15
13 13 13 13 13 13 13 14 14 14 15 15 15 16 16 15 15 15 15 15 16 16 17 17 16 16 16 16 16 15 15 15 15 15 15 15 15 15 15 15 15 15 15
12 12 12 12 12 13 13 13 14 14 14 15 15 15 16 16 16 16 16 16 16 16 16 17 17 16 17 17 17 16 16 16 16 16 16 15 15 15 15 15 15 15 15
12 12 12 12 12 12 13 13 13 14 14 14 15 15 15 16 16 16 16 16 16 16 16 16 16 16 16 17 17 17 17 17 17 16 16 16 15 15 15 15 15 15 15
12 12 12 12 12 12 12 13 13 13 14 14 14 15 15 16 16 16 17 17 16 16 16 16 16 16 16 17 17 17 17 17 17 17 16 16 16 15 15 15 15 15 15